GFSNW_850_rhum_279.txt.gz
RH
86 85 78 82 96 100 89 90 70 46 51 77 60 82 100 97 78 81 49 45 44 39 42 47 40 38 26 25 30 34 28 26 39 47 39 32 30 32 31 42 40 42 51 44
95 99 98 97 85 97 98 93 63 53 56 87 84 86 62 93 91 95 86 75 50 42 50 59 51 41 43 36 35 32 29 37 43 52 49 43 44 36 30 29 29 43 53 33
77 82 85 84 91 85 99 99 76 42 40 61 93 86 66 70 67 100 94 92 72 83 76 55 65 54 50 47 46 55 39 33 35 42 33 37 49 42 38 35 46 42 38 31
79 77 80 83 88 98 99 94 69 51 64 49 62 60 73 88 90 74 99 92 90 100 100 89 91 69 62 54 49 48 46 49 41 33 33 40 40 41 40 43 39 43 34 30
87 84 85 99 87 98 99 97 76 74 63 55 42 43 47 50 84 56 71 89 80 87 99 98 99 76 64 64 67 57 52 60 44 58 43 46 51 42 38 39 38 38 34 33
92 96 86 84 94 99 99 99 94 98 62 56 51 40 33 59 48 47 47 50 59 66 65 98 98 98 90 85 84 88 71 64 61 61 43 58 67 51 45 42 38 37 44 32
57 70 78 78 84 100 99 98 99 96 73 53 50 40 38 40 36 48 41 45 48 46 49 73 95 88 89 78 93 89 99 99 81 84 61 87 37 38 36 42 38 36 35 34
80 70 74 82 88 98 100 98 99 97 84 54 48 41 40 40 40 41 41 42 46 52 71 81 95 98 99 94 92 90 75 88 100 94 76 49 37 43 47 52 51 37 38 37
76 82 83 86 80 100 99 99 97 98 95 64 47 60 48 55 52 44 34 36 47 75 84 95 90 94 85 100 100 85 84 84 99 100 96 85 38 31 37 44 61 36 43 40
83 91 75 68 95 98 97 99 100 99 98 74 65 58 54 48 51 58 44 38 47 51 72 86 86 77 74 98 92 96 97 98 96 93 96 55 33 45 40 56 41 40 39 42
85 91 83 83 92 97 99 99 99 99 98 80 72 62 64 59 58 73 50 50 46 66 84 70 68 73 90 89 95 84 92 96 95 97 98 87 43 48 46 36 39 39 42 47
93 99 94 86 88 94 99 99 100 93 99 93 82 89 79 74 68 68 66 58 50 49 68 86 89 92 86 93 90 99 96 65 74 68 61 39 44 37 38 40 40 42 42 53
100 100 100 95 88 69 90 98 99 100 99 98 99 91 57 85 68 71 81 66 64 64 63 76 84 95 75 79 61 54 86 93 94 97 65 48 45 43 40 39 40 37 44 46
98 99 94 90 82 67 80 99 99 99 98 97 66 61 69 58 62 68 76 72 67 74 85 96 90 82 59 85 81 74 55 50 55 66 55 61 46 49 42 41 43 44 42 48
95 98 92 90 96 82 55 69 94 99 99 96 80 77 51 47 64 73 78 88 96 93 91 98 87 67 68 65 69 71 45 49 63 59 42 54 64 58 48 47 48 49 52 72
97 98 94 94 96 91 80 90 85 96 100 99 87 72 57 58 69 72 72 75 90 92 97 89 87 67 67 80 62 65 70 77 82 84 89 82 73 59 60 57 54 63 72 61
97 99 96 93 95 92 98 78 71 79 96 98 89 81 75 70 78 92 97 90 94 98 96 97 84 69 87 94 84 82 78 77 84 88 100 94 88 81 71 67 73 70 65 70
90 83 78 86 97 96 99 99 98 96 90 88 93 81 82 89 94 97 98 98 99 99 97 99 97 78 96 93 83 73 76 93 87 94 97 100 97 98 95 80 78 76 84 85
70 76 97 86 96 94 92 95 98 98 97 88 91 79 79 97 95 99 98 100 98 99 99 90 96 93 94 92 90 86 95 98 99 97 98 96 95 96 96 98 100 94 96 99
66 65 79 100 95 93 90 97 98 99 99 98 96 98 93 77 70 83 92 97 97 97 97 96 93 91 90 96 100 98 96 98 99 100 89 97 97 96 96 96 96 95 96 99
95 98 98 81 86 93 98 98 96 97 96 95 95 96 86 73 90 85 85 96 96 95 95 90 92 89 91 97 98 96 97 97 99 99 97 96 96 95 94 95 95 96 95 95
93 96 100 79 65 71 76 83 84 91 93 85 91 88 90 88 97 95 96 96 94 93 91 88 90 89 95 97 96 95 96 97 96 96 96 96 96 96 96 96 95 96 96 96
76 66 63 73 75 81 81 87 77 88 88 96 94 89 93 94 98 94 95 92 95 88 82 91 93 93 96 97 96 96 96 96 97 97 96 96 96 96 95 95 96 95 95 96
58 72 85 86 83 82 79 82 84 80 94 95 96 92 92 98 94 93 92 93 81 88 87 92 92 96 97 96 97 94 96 96 96 96 96 96 95 96 96 95 96 95 95 96
63 70 83 87 82 90 87 91 88 88 98 98 93 94 96 91 91 88 81 82 88 90 92 91 95 96 96 96 96 96 95 96 95 96 96 96 96 95 95 95 96 96 95 95
68 82 83 80 80 78 82 84 88 98 100 100 100 87 85 88 82 78 88 79 90 90 90 96 96 96 96 96 96 96 96 95 96 95 95 95 95 95 95 96 92 89 81 74
85 97 100 100 98 90 86 81 86 99 100 87 80 84 92 82 77 83 84 89 91 94 97 97 97 96 96 96 96 96 95 88 82 81 79 80 81 79 75 72 79 78 77 74

GFSNW_850_rhum_282.txt.gz
RH
70 72 90 92 96 94 99 96 79 51 48 65 65 85 97 69 65 71 81 74 72 77 95 87 64 48 40 40 37 38 31 38 82 63 41 39 39 41 41 68 53 66 78 66
79 86 93 95 97 100 99 98 78 46 47 84 79 69 55 51 67 79 99 95 92 90 96 100 86 46 46 43 49 68 60 47 63 64 53 44 52 43 36 36 41 61 72 56
61 58 67 96 93 100 98 99 91 45 40 44 67 79 57 54 41 74 84 87 72 87 90 75 100 70 54 50 57 66 59 54 45 53 47 52 58 48 42 39 59 48 49 41
76 68 68 60 83 93 99 98 92 53 71 54 66 65 62 59 52 82 65 88 71 93 94 79 90 96 94 70 61 68 83 92 61 57 46 46 45 49 47 48 42 55 44 41
75 68 60 61 71 82 100 98 97 72 62 57 59 59 60 47 56 46 53 58 51 64 96 89 96 94 79 93 88 69 86 96 71 70 54 49 52 49 46 45 43 44 41 42
62 60 76 80 80 90 100 98 99 94 79 59 60 60 47 46 42 39 35 40 49 54 54 44 49 51 69 88 98 99 92 96 84 80 65 61 77 60 54 47 43 42 52 39
86 60 48 73 69 77 99 100 99 99 93 66 58 46 42 44 46 52 41 37 43 46 48 54 64 62 56 62 93 96 97 92 94 90 83 94 60 38 40 44 40 41 41 39
86 88 87 84 80 87 100 99 99 98 94 64 57 51 46 43 46 42 45 37 38 38 60 81 78 74 97 87 83 90 84 93 99 98 96 76 66 50 49 54 54 41 42 40
80 85 90 96 78 91 99 99 100 99 98 76 58 55 48 65 63 58 43 42 40 42 73 89 96 90 82 95 96 89 89 76 90 99 96 91 57 41 37 44 65 44 45 42
83 83 98 96 96 90 95 99 99 99 99 77 69 66 65 49 61 70 55 50 56 46 78 92 84 81 63 92 96 97 94 97 97 92 87 73 54 48 40 78 60 40 42 45
87 88 87 98 98 93 91 78 99 99 99 90 72 65 64 63 62 79 61 72 52 74 95 95 92 95 91 96 87 97 97 97 98 97 98 91 48 49 52 45 41 42 45 49
90 86 85 98 100 94 90 82 88 99 100 92 83 76 78 73 72 73 72 71 67 59 89 86 91 84 84 86 91 93 96 94 97 97 96 79 48 53 44 41 37 41 50 51
94 96 92 98 100 100 92 87 76 98 100 98 99 93 50 61 63 71 81 74 69 58 55 86 96 97 86 96 75 68 94 100 79 94 69 69 55 55 53 49 45 44 45 43
96 97 92 98 94 98 91 92 78 97 99 99 73 60 66 64 67 77 79 76 76 68 66 90 98 92 62 90 96 84 70 65 70 69 64 78 58 79 87 74 54 51 54 46
80 96 95 96 94 96 93 75 75 92 99 98 91 68 48 48 51 64 67 76 87 94 92 98 96 75 73 85 83 85 91 93 91 84 80 95 84 89 95 79 69 60 54 57
61 87 96 98 99 92 96 88 83 64 72 96 98 68 40 47 61 64 70 79 88 98 97 94 80 66 74 100 94 75 70 69 76 90 96 100 90 98 92 92 86 66 60 61
48 54 68 99 92 98 96 87 90 98 90 96 93 93 71 74 80 89 89 96 99 96 96 97 84 70 86 98 96 85 80 82 88 89 92 82 87 98 98 98 85 84 77 87
43 49 61 86 92 93 97 95 91 99 99 94 89 91 84 87 96 96 90 98 100 99 98 98 95 90 94 97 85 83 88 97 78 78 87 95 100 99 99 97 96 86 88 89
39 43 59 69 73 84 84 92 85 97 99 96 93 98 97 90 77 72 92 99 99 98 98 96 94 94 95 94 93 92 99 100 99 96 89 91 98 98 98 99 99 95 95 95
39 46 58 80 76 82 93 85 99 99 98 98 98 94 96 72 78 88 88 90 98 97 97 94 95 96 91 96 98 100 99 100 100 99 91 90 97 98 96 95 96 95 95 95
52 77 97 71 64 73 84 86 89 88 95 87 94 96 94 70 96 97 83 97 98 96 96 91 96 92 91 97 97 96 97 98 100 99 98 97 97 98 96 97 96 96 95 95
64 95 99 73 63 61 79 93 83 92 97 94 96 95 87 89 95 98 98 97 94 96 85 88 96 90 96 98 97 96 96 96 96 96 96 97 97 97 97 96 96 96 96 96
63 73 73 74 70 80 89 97 89 93 94 96 95 89 89 89 96 98 95 93 96 80 90 96 96 94 97 97 96 95 96 96 95 96 97 96 97 97 95 96 96 96 96 96
58 70 83 92 92 94 96 98 98 88 90 99 98 96 98 96 96 96 94 97 84 90 93 97 95 96 97 96 96 95 96 96 95 95 96 96 96 96 96 96 96 95 95 96
59 74 89 95 87 92 87 83 86 90 96 98 94 96 99 96 94 95 92 84 98 98 98 96 96 96 96 96 95 95 96 96 96 96 96 96 97 96 95 96 96 96 96 96
73 87 93 82 87 90 88 84 86 88 94 99 97 98 91 97 94 87 100 89 99 98 96 97 96 96 96 96 96 96 96 96 96 96 96 95 95 95 95 95 95 96 96 95
89 98 100 95 93 92 81 76 86 85 100 98 94 94 100 92 91 96 97 99 97 97 97 96 96 96 96 96 96 96 96 96 96 96 93 92 92 94 92 88 89 85 80 72

GFSNW_850_rhum_288.txt.gz
RH
92 85 83 96 96 75 45 93 91 50 59 72 89 94 87 57 50 43 71 69 73 85 69 83 63 73 77 87 98 88 72 53 66 63 49 45 36 40 38 50 59 70 72 47
80 77 83 87 94 96 74 96 99 57 55 89 82 76 70 60 59 60 78 73 77 75 71 87 75 69 64 77 89 97 95 87 85 76 58 52 52 47 38 50 63 66 69 51
86 79 85 87 95 93 60 97 98 70 63 63 83 94 80 71 55 67 71 77 78 77 72 59 78 72 64 65 69 98 100 100 76 70 55 62 64 54 50 43 66 52 66 46
93 79 87 88 93 96 77 88 96 84 96 75 87 89 94 92 78 56 57 66 74 78 88 69 79 60 58 50 75 95 96 98 77 76 79 59 56 59 50 53 44 51 42 54
94 83 81 81 86 89 99 84 92 92 96 93 99 82 91 86 72 66 65 77 62 70 85 70 79 63 58 60 76 92 94 95 86 99 83 80 87 83 59 51 46 50 51 52
85 89 80 81 90 95 99 98 99 100 80 92 93 93 92 66 61 54 52 59 74 64 55 48 47 47 48 52 58 68 97 97 99 96 98 91 98 83 76 57 52 49 59 42
70 90 82 82 90 98 99 99 99 90 88 88 78 87 95 85 64 69 57 55 64 52 49 49 49 52 51 50 56 58 92 96 97 98 99 97 60 60 59 58 53 48 48 43
46 94 85 89 90 94 98 99 99 92 93 80 81 93 91 86 69 65 59 52 51 53 58 81 89 80 73 74 77 90 96 93 96 98 93 96 78 91 90 72 73 75 65 44
42 94 88 90 92 86 98 98 99 98 99 89 85 95 90 94 82 79 64 57 57 62 77 93 100 96 93 91 77 66 91 97 98 97 97 98 96 94 82 82 86 95 79 69
39 66 95 92 91 93 100 99 99 99 98 78 84 89 97 86 75 87 79 71 73 61 92 93 89 93 76 93 98 95 92 94 93 96 97 96 96 93 77 95 95 95 97 88
37 44 88 98 98 96 95 97 100 99 98 83 86 90 93 89 90 95 82 89 73 87 90 97 91 91 88 87 82 95 96 98 100 88 95 96 97 84 88 96 96 98 97 99
33 33 81 97 99 96 97 97 100 100 99 92 75 70 80 89 88 98 96 83 90 91 93 94 97 90 94 95 98 77 96 97 96 98 97 96 98 97 97 97 97 96 98 100
29 29 40 63 72 97 96 97 96 98 96 80 75 61 60 68 74 84 99 85 78 81 80 96 98 97 96 95 86 94 84 79 94 91 88 86 91 80 73 91 100 98 98 98
25 18 28 39 50 98 95 99 99 78 97 99 71 50 58 60 59 63 74 78 94 97 88 98 97 99 71 94 94 86 78 69 73 73 74 60 87 71 75 86 97 93 90 96
10 10 22 35 56 97 92 95 82 83 92 98 87 55 53 52 73 72 70 75 86 99 98 98 96 91 89 97 86 84 89 91 85 83 70 80 81 77 68 91 100 93 100 90
8 13 24 37 66 96 93 84 96 94 99 99 95 70 48 54 60 67 61 70 83 98 98 98 98 98 97 96 89 81 84 91 95 90 96 100 89 74 84 82 88 97 99 96
8 10 21 35 67 85 86 87 99 96 91 98 91 89 58 73 62 57 57 74 95 98 98 98 96 94 94 94 91 82 87 92 98 87 94 83 80 90 92 99 92 100 97 99
8 8 15 30 69 83 99 94 95 91 98 98 95 92 76 87 66 74 58 91 99 96 96 94 92 78 84 95 81 87 93 100 84 99 94 93 94 96 100 96 96 98 96 96
8 9 12 32 66 61 67 91 98 96 98 94 97 98 97 71 64 64 71 97 97 84 96 96 73 92 97 94 95 96 100 100 100 94 86 90 88 99 97 96 97 98 98 96
9 12 18 56 66 60 77 99 90 98 93 84 97 85 93 72 80 92 89 81 97 96 97 79 94 98 92 97 98 100 100 100 99 100 93 96 91 98 100 99 98 99 100 100
17 24 59 61 64 57 66 67 79 78 93 97 96 95 90 72 97 98 88 97 96 95 94 90 98 97 91 97 97 98 98 100 98 98 98 98 98 98 97 96 97 97 97 97
39 81 98 87 68 47 61 92 78 90 100 97 100 96 90 80 94 98 94 97 90 96 86 87 100 96 96 97 96 95 98 95 96 96 97 96 97 96 96 96 96 96 97 96
56 86 86 71 68 82 90 100 86 95 98 100 96 91 84 84 96 96 93 91 98 78 95 100 98 92 95 95 97 94 96 95 94 95 96 96 96 97 96 96 96 96 96 97
66 75 86 92 98 98 96 96 98 89 98 90 91 100 100 94 96 98 92 97 84 93 100 100 100 99 97 96 96 96 96 96 96 96 96 96 96 96 96 96 96 96 96 96
66 71 100 97 96 96 94 76 68 77 84 94 98 96 98 98 86 95 87 82 100 98 99 99 97 97 97 96 96 96 96 96 96 96 96 96 96 96 96 96 96 96 95 95
76 84 91 87 95 90 81 80 71 83 88 100 99 100 96 100 96 89 100 94 100 98 98 96 98 97 97 97 97 98 97 97 98 97 96 96 96 96 96 96 96 95 95 96
87 100 90 100 98 93 85 79 78 90 95 100 97 93 100 93 97 100 99 100 98 99 96 96 98 99 98 98 98 98 98 96 97 97 98 100 99 97 96 93 96 96 96 96

GFSNW_850_rhum_294.txt.gz
RH
83 94 95 88 98 94 77 98 96 41 47 53 86 94 84 70 70 58 59 73 86 92 78 92 88 75 58 50 61 71 68 95 93 94 63 45 38 50 43 54 73 67 80 48
92 96 92 86 91 98 94 100 96 51 57 94 85 80 77 74 77 86 73 71 69 76 82 89 79 74 48 57 66 74 73 91 93 94 91 76 62 48 42 49 44 58 59 50
96 98 97 85 86 97 90 99 97 70 65 67 95 94 82 83 66 80 79 75 80 85 80 71 88 77 66 58 62 58 88 93 94 88 76 94 97 62 47 44 54 52 48 41
99 100 95 87 84 93 91 96 92 93 96 77 90 94 91 87 94 74 64 71 77 83 92 83 78 66 69 61 58 90 88 96 72 70 68 72 92 94 64 52 47 52 42 50
100 98 96 89 87 95 99 99 98 98 96 89 92 86 91 89 84 95 88 86 79 83 96 85 92 77 73 78 71 88 91 91 86 84 68 74 87 78 74 62 48 48 50 60
100 97 97 98 92 91 99 98 98 99 85 87 90 85 86 88 86 70 76 76 92 80 64 58 66 69 69 75 90 92 95 97 96 94 80 90 88 94 96 88 94 96 86 95
73 70 98 98 94 92 100 95 100 98 94 89 77 80 81 86 85 92 78 78 78 61 65 66 59 65 92 97 96 94 94 95 96 98 91 96 97 89 93 92 93 92 89 87
45 54 79 98 97 93 95 90 100 98 97 88 79 81 87 89 77 88 78 64 66 72 72 86 81 58 60 70 56 81 96 95 96 96 95 96 83 90 94 96 96 93 94 86
36 49 88 100 99 98 96 87 96 99 99 86 73 88 86 98 96 91 73 68 72 68 78 90 100 92 94 81 72 52 52 85 96 96 95 95 94 92 94 94 94 92 93 91
38 37 45 79 100 98 98 90 95 99 98 81 78 88 95 92 92 91 87 85 88 74 82 94 100 99 80 96 97 93 76 87 92 93 96 94 93 90 91 87 93 92 95 94
35 34 16 31 71 95 98 88 91 98 99 84 88 92 89 94 85 99 77 84 80 95 93 96 93 99 93 95 94 97 95 98 94 88 94 94 91 77 88 95 92 96 95 96
36 25 13 16 18 74 96 100 96 99 100 92 94 75 68 80 80 99 92 86 96 98 98 96 98 92 98 98 98 78 93 89 96 95 95 95 74 95 93 87 92 92 97 96
33 14 12 11 12 38 96 98 99 94 99 82 70 58 67 71 80 86 99 88 98 98 98 98 97 100 96 98 96 81 76 71 78 78 84 67 81 90 76 87 93 91 97 100
26 12 10 10 10 31 98 98 97 94 95 99 72 61 64 62 66 71 80 89 99 98 100 97 98 96 96 93 81 80 77 71 75 65 56 65 92 73 85 93 92 97 100 100
10 9 11 11 11 39 99 100 97 99 90 98 82 66 57 57 54 47 54 78 100 99 98 98 96 94 90 91 77 92 94 94 87 83 71 88 84 89 85 97 100 97 100 99
10 10 11 13 16 66 97 99 98 91 100 94 97 69 61 52 47 42 55 91 99 98 98 96 96 96 95 92 92 82 89 96 97 93 97 98 87 87 94 100 100 96 96 95
10 10 11 18 32 98 91 92 97 90 93 99 92 90 63 63 41 46 56 85 92 95 95 95 91 95 94 93 93 82 94 90 78 78 99 84 89 100 95 100 99 94 97 97
10 10 19 24 94 98 100 98 97 93 97 90 100 94 68 61 56 59 60 92 83 76 93 81 83 69 77 97 90 93 91 82 69 79 86 90 94 90 91 94 95 90 96 99
9 19 28 72 78 68 86 84 96 94 91 96 92 100 99 61 58 70 74 87 97 78 93 91 71 94 100 97 98 98 98 100 99 85 77 79 84 94 93 96 95 96 96 97
14 26 28 64 62 73 90 98 94 85 81 83 98 99 97 67 81 89 89 95 98 98 97 67 94 100 90 97 99 98 97 98 98 94 86 86 84 96 97 99 99 100 100 98
40 39 42 54 65 59 69 67 66 70 90 92 96 99 95 74 97 100 92 98 98 98 93 88 100 100 96 97 97 97 97 97 98 98 97 97 97 98 98 94 96 96 97 97
55 70 86 75 63 53 64 96 83 89 97 94 98 84 80 80 94 98 94 97 94 98 88 90 100 94 96 96 96 97 98 97 97 99 99 97 98 97 97 96 94 97 97 97
62 75 78 64 68 80 98 100 89 93 99 100 92 94 80 89 98 97 97 96 98 81 93 100 98 94 96 97 97 95 97 97 97 98 99 98 97 98 98 98 98 96 96 97
63 65 80 92 99 100 99 97 97 90 89 83 89 95 100 97 97 99 97 96 92 98 97 100 97 97 97 97 97 96 97 97 97 97 98 97 97 98 97 96 98 96 96 97
64 73 87 98 99 100 99 92 78 72 79 91 97 98 99 99 98 97 95 95 99 96 97 97 98 97 97 96 96 96 96 96 96 96 97 98 98 96 97 96 97 97 96 96
72 80 89 95 98 98 90 82 71 80 89 100 99 100 98 99 98 96 98 97 100 98 96 98 97 97 97 97 97 97 97 97 97 97 97 97 96 98 100 97 96 96 97 96
81 94 84 91 93 92 80 73 75 81 96 100 100 97 99 98 98 98 96 98 98 99 99 98 98 98 98 97 97 97 97 96 96 96 96 97 99 99 95 92 98 97 96 96